Date String (YYYY-MM-DD hh:mm:ss) UTC,Instrument flags,absolute air pressure of the measurement (hPa),sample flow rate (lpm),inlet stack bypass flow (lpm),air temperature of the measurement (°C),ambient temperature measured by the external sensor (°C),aerosol sample conditioner tube jacket temperature (°C),OPC LED temperature (°C),internal box temperature (°C),relative humidity of the measurement (%),span deviation,mass concentration of particles derived from Lorenz-Mie calculation of OPC scattering (μg/m³),mass concentration of particles derived from Lorenz-Mie calculation of OPC scattering (μg/m³),mass concentration of particles derived from Lorenz-Mie calculation of OPC scattering (μg/m³)
DateTimeUTC,F1_M11,P_M11,Q1_M11,Q2_M11,T1_M11,T2_M11,T3_M11,T4_M11,T5_M11,U1_M11,ZSPAN_M11,X2_M11,X0_M11,X1_M11
2024-05-09 05:00:00,SystemResetWarning,0826.5,5.01,000.00,025.0,024.2,000.0,033.2,026.7,009.6,0000.0,0000.53,0001.18,0000.30
2024-05-09 05:01:00,SystemResetWarning,0826.6,5.01,000.00,025.0,024.2,000.0,033.2,026.7,009.6,0000.0,0000.55,0001.22,0000.31
2024-05-09 05:02:00,SystemResetWarning,0826.5,4.99,000.00,025.0,024.2,000.0,033.2,026.7,009.6,0000.0,0000.55,0001.22,0000.30
2024-05-09 05:03:00,SystemResetWarning,0826.5,4.99,000.00,025.0,024.2,000.0,033.2,026.7,009.6,0000.0,0000.56,0001.14,0000.29
2024-05-09 05:04:00,SystemResetWarning,0826.5,5.00,000.00,025.0,024.2,000.0,033.2,026.7,009.6,0000.0,0000.54,0001.05,0000.29
2024-05-09 05:05:00,SystemResetWarning,0826.6,5.02,000.00,025.0,024.2,000.0,033.2,026.7,009.5,0000.0,0000.53,0001.00,0000.29
2024-05-09 05:06:00,SystemResetWarning,0826.6,4.99,000.00,025.0,024.2,000.0,033.2,026.7,009.6,0000.0,0000.52,0001.11,0000.29
2024-05-09 05:07:00,SystemResetWarning,0826.6,5.00,000.00,025.0,024.2,000.0,033.2,026.7,009.6,0000.0,0000.50,0001.19,0000.30
2024-05-09 05:08:00,SystemResetWarning,0826.6,4.99,000.00,025.0,024.2,000.0,033.2,026.7,009.6,0000.0,0000.53,0001.22,0000.30
2024-05-09 05:09:00,SystemResetWarning,0826.6,5.00,000.00,025.0,024.2,000.0,033.2,026.7,009.6,0000.0,0000.50,0001.18,0000.30
2024-05-09 05:10:00,SystemResetWarning,0826.5,4.99,000.00,025.0,024.2,000.0,033.2,026.7,009.6,0000.0,0000.50,0001.17,0000.30
2024-05-09 05:11:00,SystemResetWarning,0826.5,5.02,000.00,025.0,024.2,000.0,033.2,026.7,009.5,0000.0,0000.50,0001.18,0000.30
2024-05-09 05:12:00,SystemResetWarning,0826.6,5.00,000.00,025.0,024.2,000.0,033.2,026.7,009.5,0000.0,0000.49,0001.18,0000.30
2024-05-09 05:13:00,SystemResetWarning,0826.6,5.00,000.00,025.0,024.2,000.0,033.2,026.7,009.6,0000.0,0000.47,0001.13,0000.30
2024-05-09 05:14:00,SystemResetWarning,0826.6,4.99,000.00,025.0,024.2,000.0,033.2,026.6,009.6,0000.0,0000.43,0001.07,0000.29
2024-05-09 05:15:00,SystemResetWarning,0826.6,4.99,000.00,025.0,024.2,000.0,033.2,026.6,009.6,0000.0,0000.44,0001.10,0000.29
2024-05-09 05:16:00,SystemResetWarning,0826.6,5.00,000.00,025.0,024.2,000.0,033.2,026.6,009.5,0000.0,0000.47,0001.17,0000.29
2024-05-09 05:17:00,SystemResetWarning,0826.6,5.00,000.00,025.0,024.2,000.0,033.2,026.7,009.5,0000.0,0000.47,0001.06,0000.30
2024-05-09 05:18:00,SystemResetWarning,0826.6,5.01,000.00,025.0,024.2,000.0,033.2,026.7,009.5,0000.0,0000.48,0000.88,0000.30
2024-05-09 05:19:00,SystemResetWarning,0826.6,5.00,000.00,025.0,024.2,000.0,033.2,026.6,009.6,0000.0,0000.52,0000.99,0000.30
2024-05-09 05:20:00,SystemResetWarning,0826.6,5.00,000.00,025.0,024.2,000.0,033.2,026.6,009.6,0000.0,0000.51,0001.00,0000.29
2024-05-09 05:21:00,SystemResetWarning,0826.6,4.99,000.00,024.9,024.1,000.0,033.2,026.6,009.6,0000.0,0000.51,0001.01,0000.29
2024-05-09 05:22:00,SystemResetWarning,0826.5,4.99,000.00,024.9,024.1,000.0,033.2,026.6,009.7,0000.0,0000.52,0001.01,0000.30
2024-05-09 05:23:00,SystemResetWarning,0826.5,5.00,000.00,024.9,024.1,000.0,033.1,026.6,009.7,0000.0,0000.51,0000.99,0000.29
2024-05-09 05:24:00,SystemResetWarning,0826.5,5.01,000.00,024.9,024.1,000.0,033.1,026.6,009.7,0000.0,0000.52,0000.96,0000.30
2024-05-09 05:25:00,SystemResetWarning,0826.5,5.00,000.00,024.9,024.1,000.0,033.1,026.6,009.7,0000.0,0000.53,0001.08,0000.31
2024-05-09 05:26:00,SystemResetWarning,0826.4,4.99,000.00,024.9,024.1,000.0,033.1,026.6,009.6,0000.0,0000.55,0001.17,0000.31
2024-05-09 05:27:00,SystemResetWarning,0826.5,4.99,000.00,024.9,024.1,000.0,033.1,026.6,009.6,0000.0,0000.53,0001.16,0000.31
2024-05-09 05:28:00,SystemResetWarning,0826.4,5.00,000.00,024.9,024.1,000.0,033.1,026.6,009.6,0000.0,0000.54,0001.19,0000.31
2024-05-09 05:29:00,SystemResetWarning,0826.4,5.01,000.00,024.9,024.1,000.0,033.1,026.6,009.7,0000.0,0000.52,0001.11,0000.31
2024-05-09 05:30:00,SystemResetWarning,0826.4,5.01,000.00,024.9,024.1,000.0,033.1,026.6,009.7,0000.0,0000.47,0000.95,0000.31
2024-05-09 05:31:00,SystemResetWarning,0826.5,4.99,000.00,024.9,024.1,000.0,033.1,026.6,009.7,0000.0,0000.47,0000.92,0000.32
2024-05-09 05:32:00,SystemResetWarning,0826.5,4.99,000.00,024.9,024.1,000.0,033.1,026.6,009.6,0000.0,0000.50,0001.01,0000.32
2024-05-09 05:33:00,SystemResetWarning,0826.5,4.99,000.00,024.9,024.1,000.0,033.1,026.6,009.6,0000.0,0000.50,0001.02,0000.31
2024-05-09 05:34:00,SystemResetWarning,0826.5,5.00,000.00,024.9,024.1,000.0,033.1,026.6,009.7,0000.0,0000.49,0001.00,0000.32
2024-05-09 05:35:00,SystemResetWarning,0826.5,5.01,000.00,024.9,024.1,000.0,033.1,026.6,009.7,0000.0,0000.51,0001.13,0000.31
2024-05-09 05:36:00,SystemResetWarning,0826.6,5.00,000.00,024.9,024.1,000.0,033.1,026.6,009.7,0000.0,0000.54,0001.20,0000.32
2024-05-09 05:37:00,SystemResetWarning,0826.6,5.00,000.00,024.9,024.1,000.0,033.1,026.6,009.7,0000.0,0000.54,0001.20,0000.32
2024-05-09 05:38:00,SystemResetWarning,0826.6,5.00,000.00,024.9,024.1,000.0,033.1,026.6,009.7,0000.0,0000.55,0001.19,0000.33
2024-05-09 05:39:00,SystemResetWarning,0826.6,5.00,000.00,024.9,024.1,000.0,033.1,026.6,009.8,0000.0,0000.56,0001.27,0000.32
2024-05-09 05:40:00,SystemResetWarning,0826.7,5.00,000.00,024.9,024.1,000.0,033.1,026.6,009.6,0000.0,0000.56,0001.30,0000.32
2024-05-09 05:41:00,SystemResetWarning,0826.6,5.00,000.00,024.9,024.1,000.0,033.1,026.6,009.7,0000.0,0000.58,0001.33,0000.33
2024-05-09 05:42:00,SystemResetWarning,0826.6,5.00,000.00,024.9,024.1,000.0,033.1,026.6,009.7,0000.0,0000.61,0001.41,0000.33
2024-05-09 05:43:00,SystemResetWarning,0826.6,5.00,000.00,024.9,024.1,000.0,033.1,026.6,009.6,0000.0,0000.58,0001.33,0000.33
2024-05-09 05:44:00,SystemResetWarning,0826.6,5.00,000.00,024.9,024.1,000.0,033.1,026.5,009.7,0000.0,0000.59,0001.33,0000.33
2024-05-09 05:45:00,SystemResetWarning,0826.6,5.01,000.00,024.9,024.1,000.0,033.1,026.6,009.8,0000.0,0000.59,0001.33,0000.33
2024-05-09 05:46:00,SystemResetWarning,0826.6,5.00,000.00,024.9,024.1,000.0,033.1,026.6,009.8,0000.0,0000.56,0001.16,0000.33
2024-05-09 05:47:00,SystemResetWarning,0826.6,5.00,000.00,024.9,024.1,000.0,033.1,026.5,009.8,0000.0,0000.51,0001.00,0000.33
2024-05-09 05:48:00,SystemResetWarning,0826.6,5.00,000.00,024.9,024.1,000.0,033.1,026.5,010.0,0000.0,0000.51,0001.04,0000.33
2024-05-09 05:49:00,SystemResetWarning,0826.6,5.01,000.00,024.9,024.1,000.0,033.1,026.6,010.0,0000.0,0000.53,0001.11,0000.33
2024-05-09 05:50:00,SystemResetWarning,0826.6,5.00,000.00,024.9,024.1,000.0,033.1,026.6,009.9,0000.0,0000.51,0001.00,0000.33
2024-05-09 05:51:00,SystemResetWarning,0826.6,4.99,000.00,024.9,024.1,000.0,033.1,026.6,009.8,0000.0,0000.52,0001.00,0000.34
2024-05-09 05:52:00,SystemResetWarning,0826.6,4.99,000.00,024.9,024.1,000.0,033.1,026.6,009.8,0000.0,0000.54,0001.08,0000.34
2024-05-09 05:53:00,SystemResetWarning,0826.6,5.01,000.00,024.9,024.1,000.0,033.1,026.6,009.9,0000.0,0000.51,0001.04,0000.34
2024-05-09 05:54:00,SystemResetWarning,0826.6,5.01,000.00,024.9,024.1,000.0,033.1,026.6,010.0,0000.0,0000.51,0001.04,0000.34
2024-05-09 05:55:00,SystemResetWarning,0826.6,5.00,000.00,024.9,024.1,000.0,033.1,026.6,010.0,0000.0,0000.51,0001.02,0000.34
2024-05-09 05:56:00,SystemResetWarning,0826.6,4.99,000.00,024.9,024.1,000.0,033.1,026.6,009.9,0000.0,0000.54,0001.10,0000.34
2024-05-09 05:57:00,SystemResetWarning,0826.6,4.99,000.00,024.9,024.1,000.0,033.1,026.6,009.8,0000.0,0000.55,0001.13,0000.35
2024-05-09 05:58:00,SystemResetWarning,0826.6,5.01,000.00,024.9,024.1,000.0,033.1,026.6,009.7,0000.0,0000.58,0001.31,0000.34
2024-05-09 05:59:00,SystemResetWarning,0826.6,5.01,000.00,024.9,024.1,000.0,033.1,026.6,009.8,0000.0,0000.58,0001.23,0000.34
